User: anonymous   Login
Location: Corcelles
(46.1547°N, 4.7234°E)
Time: 22:58:30
(UTC+00:00)
Language:

Cosmos 1666 Rocket - Orbit

View from above orbital plane
View from above orbital plane
View from above satellite
View from above satellite

Ground track
Ground track

The orbit data is extracted from the following two-line orbital elements,

1 15890U 85058B   20271.83673427  .00000073  00000-0  60284-5 0  9996
2 15890  82.5279 218.8608 0019665 225.7503 197.9774 14.83442825902615
Epoch (UTC): 27 September 2020 20:04:53
Eccentricity: 0.0019665
inclination: 82.5279°
perigee height: 605 km
apogee height: 632 km
right ascension of ascending node: 218.8608°
argument of perigee: 225.7503°
revolutions per day: 14.83442825
mean anomaly at epoch: 197.9774°
orbit number at epoch: 90261

The dashed part of the orbit path shows where the satellite is in the earth's shadow,  

DLR